Tracking 25734 objects as of 28-May-2022
HD Live streaming from Space Station
objects crossing your sky now

DELTA 1 DEB

Track DELTA 1 DEB now!
10-day predictions


NORAD ID: 29182
Int'l Code: 1968-002F
Perigee: 988.1 km
Apogee: 1,394.5 km
Inclination: 105.8 °
Period: 109.1 minutes
Semi major axis: 7562 km
RCS: 0.0062 m2 (small)
Launch date: January 11, 1968
Source: United States (US)
Launch site: AIR FORCE WESTERN TEST RANGE (AFWTR)

Note: This is SATELLITE DEBRIS
aabbcc
Your satellite tracking list
Your tracking list is empty




NASA's NSSDC Master Catalog

Two Line Element Set (TLE):
1 29182U 68002F   22134.37994553  .00000968  00000-0  21590-2 0  9997
2 29182 105.8323 338.7906 0268694  35.4478 326.4150 13.20144346 25644
Source of the keplerian elements: AFSPC